Total_Precipitation_Accumulation
0.12 0.28 0.56 1.01 1.60 2.15 2.29 1.70 1.27 1.10 0.95 0.88 0.71 0.62 0.72 1.00 1.31 2.09 2.19 1.91 1.29 1.21 1.34 1.29 1.29 1.07 0.95 0.96 1.00 1.01 1.00 0.95 0.89 1.01 1.27 1.45 1.70 1.96 1.98 2.05 2.27 2.56 2.56 2.44 2.37 2.05 1.78 1.65 1.45
0.22 0.38 0.72 1.22 1.95 2.63 2.39 1.55 1.18 1.04 0.81 0.72 0.67 0.64 0.75 0.91 0.97 1.32 1.78 1.58 1.06 0.96 0.97 0.89 0.99 0.98 0.91 0.91 0.89 0.87 0.90 0.89 0.90 1.01 1.23 1.41 1.60 1.87 1.97 2.12 2.34 2.51 2.38 2.31 2.03 1.75 1.55 1.38 1.21
0.36 0.52 0.75 1.20 1.64 2.22 1.98 1.39 0.96 0.81 0.70 0.73 0.87 0.79 0.98 1.28 1.30 1.54 1.49 1.14 0.95 0.87 0.81 0.93 0.96 0.90 0.88 0.83 0.85 0.86 0.87 0.86 0.91 1.00 1.17 1.33 1.57 1.82 1.96 2.02 2.23 2.24 2.08 1.98 1.80 1.61 1.34 1.17 1.06
0.38 0.60 0.76 1.00 1.13 1.15 1.25 1.24 0.85 0.87 0.86 0.75 0.84 1.13 1.27 1.34 1.33 1.48 1.38 1.12 0.85 0.83 0.82 0.88 0.93 0.88 0.89 0.83 0.77 0.82 0.84 0.89 0.94 1.10 1.25 1.34 1.60 1.79 1.83 1.94 2.21 2.13 1.97 1.84 1.69 1.45 1.18 1.02 0.93
0.28 0.53 0.82 0.94 1.04 0.94 0.92 0.93 0.76 0.80 0.84 0.82 0.87 1.36 1.70 1.62 1.25 1.23 1.22 1.13 0.88 0.99 1.01 0.94 0.97 0.96 0.90 0.79 0.72 0.77 0.80 0.89 0.96 1.11 1.27 1.34 1.48 1.60 1.75 1.95 2.07 1.97 1.81 1.65 1.51 1.32 1.10 1.04 1.05
0.23 0.48 0.81 0.87 0.93 0.77 0.76 0.76 0.70 0.74 0.82 0.90 1.08 1.51 1.99 1.88 1.57 1.46 1.37 1.23 1.00 1.01 1.07 1.04 1.11 1.08 1.02 0.86 0.76 0.82 0.90 0.97 1.04 1.11 1.18 1.25 1.33 1.45 1.65 1.91 1.99 1.84 1.56 1.44 1.41 1.27 1.12 1.08 1.11
0.18 0.34 0.65 0.69 0.81 0.80 0.70 0.60 0.64 0.83 1.09 1.16 1.26 1.65 1.99 2.38 2.12 1.79 1.71 1.58 1.31 1.19 1.15 1.14 1.16 1.04 1.09 1.05 0.93 0.96 1.09 1.13 1.11 1.13 1.13 1.18 1.30 1.44 1.63 1.91 1.99 1.78 1.49 1.38 1.32 1.26 1.14 1.04 1.08
0.13 0.22 0.42 0.59 0.66 0.74 0.60 0.54 0.55 0.72 1.12 1.10 1.16 1.48 2.01 2.05 2.01 2.19 2.14 2.14 1.83 1.62 1.41 1.32 1.39 1.33 1.18 1.14 1.13 1.23 1.29 1.30 1.27 1.22 1.28 1.38 1.56 1.59 1.78 1.92 1.92 1.74 1.52 1.42 1.32 1.30 1.16 1.10 1.10
0.10 0.22 0.29 0.46 0.53 0.52 0.41 0.42 0.46 0.63 0.81 0.99 1.20 1.27 1.52 1.46 1.67 2.10 2.36 2.61 2.51 1.96 1.74 1.52 1.39 1.32 1.25 1.20 1.29 1.62 1.64 1.55 1.52 1.56 1.60 1.70 2.01 2.09 2.27 2.10 2.05 1.83 1.70 1.69 1.59 1.59 1.47 1.31 1.21
0.09 0.21 0.22 0.24 0.31 0.31 0.28 0.31 0.37 0.66 1.11 1.50 1.62 1.53 1.49 1.54 1.93 2.25 2.31 2.40 2.55 2.13 1.80 1.73 1.61 1.45 1.35 1.20 1.36 1.85 1.71 1.65 1.81 1.97 1.89 2.14 2.57 2.84 2.48 2.48 2.48 2.42 2.37 2.24 2.23 2.29 1.90 1.54 1.60
0.06 0.10 0.14 0.18 0.21 0.21 0.25 0.30 0.35 0.61 1.19 1.57 1.71 1.73 1.76 1.74 2.14 2.50 2.64 2.47 2.49 2.31 1.97 1.86 1.76 1.68 1.68 1.78 1.62 1.80 1.91 2.03 2.12 2.13 2.21 2.43 2.50 2.70 2.83 2.88 2.89 2.94 2.79 2.59 2.79 2.74 2.13 2.14 2.55
0.03 0.05 0.09 0.14 0.18 0.21 0.22 0.26 0.44 0.64 1.02 1.33 1.37 1.77 2.01 1.96 2.32 2.58 2.69 2.82 2.69 2.56 2.25 2.04 1.90 1.90 1.99 1.94 1.91 1.90 1.97 2.05 2.24 2.39 2.39 2.67 3.07 3.19 3.32 3.30 3.10 3.18 3.17 3.34 3.29 3.32 2.86 2.86 2.65
0.03 0.04 0.08 0.10 0.15 0.19 0.23 0.27 0.34 0.66 0.84 1.07 1.29 1.66 1.91 1.96 2.35 2.68 2.96 3.07 3.02 2.73 2.41 2.36 2.09 2.02 2.07 2.25 2.39 2.13 2.39 2.43 2.48 2.71 2.86 2.99 3.32 3.42 3.51 3.46 3.43 3.10 3.13 3.34 3.68 3.54 3.73 3.71 3.28
0.03 0.05 0.08 0.10 0.13 0.18 0.33 0.43 0.44 0.81 0.87 1.02 1.28 1.71 1.82 1.86 2.13 2.15 2.54 2.90 2.99 2.71 2.52 2.47 2.33 2.36 2.44 2.50 2.64 2.73 2.90 3.02 2.94 2.96 3.08 3.17 3.40 3.77 3.81 3.75 3.69 3.28 3.13 3.43 3.76 3.75 4.27 4.16 3.96
0.04 0.09 0.15 0.16 0.20 0.26 0.37 0.64 0.69 0.89 0.97 1.20 1.27 1.46 1.62 1.64 1.82 2.06 2.35 2.69 2.76 2.52 2.59 2.71 2.80 3.01 3.12 3.13 3.13 3.10 3.25 3.31 3.42 3.71 3.78 3.84 3.78 3.94 3.81 3.80 3.63 3.51 3.43 3.60 3.67 3.80 4.23 4.00 3.96
0.08 0.19 0.30 0.31 0.30 0.33 0.54 1.13 1.03 1.06 1.05 1.13 1.15 1.32 1.41 1.49 1.69 2.05 2.22 2.51 2.71 2.59 2.65 2.87 2.92 3.32 3.51 3.62 3.73 3.66 3.66 3.68 3.93 4.16 4.33 4.28 4.11 3.92 3.99 3.75 3.54 3.62 3.57 3.76 4.08 4.09 4.18 4.33 4.26
0.16 0.23 0.32 0.38 0.27 0.27 0.50 0.94 0.89 0.97 1.17 1.08 1.07 1.14 1.21 1.30 1.45 1.68 1.97 2.32 2.66 2.91 3.16 3.50 3.56 3.53 3.65 3.87 4.04 3.83 3.88 3.88 3.89 4.00 4.26 4.16 3.84 3.71 4.07 3.91 3.89 3.80 4.01 3.92 3.59 4.20 4.42 4.43 4.32
0.13 0.21 0.29 0.33 0.31 0.27 0.42 0.64 0.81 0.91 1.03 1.12 1.12 1.21 1.31 1.46 1.71 1.92 2.27 2.51 2.77 3.26 3.66 3.89 3.90 4.14 4.46 4.68 4.58 4.37 4.06 3.90 3.78 3.82 3.99 3.88 3.80 3.71 4.01 3.80 3.75 3.90 4.30 4.36 4.22 4.51 4.43 4.27 4.32
0.12 0.21 0.27 0.29 0.34 0.38 0.47 0.54 0.85 1.09 1.20 1.33 1.52 1.75 1.93 2.12 2.18 2.37 2.77 3.04 3.20 3.33 3.60 3.89 4.26 4.65 4.78 4.62 4.57 4.57 4.40 4.18 3.78 3.62 3.73 3.76 3.53 3.57 3.94 3.63 4.00 4.03 4.22 4.36 4.30 4.54 4.44 4.20 4.31
0.14 0.23 0.30 0.35 0.37 0.39 0.54 0.66 0.89 1.33 1.49 1.44 1.51 1.53 1.57 2.01 2.22 2.45 2.78 2.93 2.90 3.09 3.39 3.81 4.27 4.61 4.52 4.65 4.90 4.91 4.74 4.15 3.82 3.70 3.69 3.55 3.37 3.32 3.42 3.94 3.91 4.01 4.23 4.30 4.24 4.29 4.07 3.78 4.14
0.16 0.19 0.26 0.33 0.46 0.44 0.57 1.00 1.16 1.45 1.59 1.47 1.42 1.43 1.38 1.58 1.90 2.06 2.24 2.40 2.66 3.06 3.53 3.88 4.20 4.34 4.37 4.59 4.77 4.52 4.37 3.95 3.84 3.82 3.70 3.48 3.39 3.35 3.48 3.74 3.83 3.92 3.80 4.04 4.22 4.02 3.97 3.86 3.89
0.18 0.17 0.19 0.27 0.46 0.61 0.68 1.34 1.60 1.79 1.67 1.39 1.40 1.45 1.55 1.67 1.76 1.88 1.92 2.23 2.63 3.07 3.67 4.11 4.12 4.20 4.07 4.21 4.38 4.25 3.94 3.72 3.59 3.56 3.36 3.23 3.13 3.12 3.24 3.41 3.60 3.74 3.63 3.80 3.65 3.73 3.93 3.97 3.78
0.14 0.14 0.16 0.26 0.39 0.62 0.74 1.16 1.62 1.71 1.61 1.31 1.22 1.42 1.65 1.62 1.67 1.91 1.86 2.06 2.35 2.79 3.21 3.65 4.00 4.08 3.90 3.87 3.98 4.12 3.93 3.63 3.39 3.25 3.18 3.12 3.09 2.91 2.89 3.11 3.33 3.46 3.35 3.32 3.52 3.86 3.81 3.72 3.68
0.11 0.14 0.24 0.37 0.59 1.00 0.78 0.89 1.31 1.56 1.46 1.22 1.23 1.35 1.52 1.67 1.67 1.83 2.09 2.15 2.31 2.59 2.96 3.26 3.49 3.48 3.44 3.42 3.47 3.57 3.62 3.57 3.33 3.13 3.17 3.13 2.96 2.81 2.74 2.83 3.17 3.28 3.22 3.20 3.30 3.39 3.44 3.48 3.65
0.13 0.26 0.67 1.08 1.38 1.20 0.81 0.88 1.24 1.19 1.04 0.96 1.04 1.30 1.54 1.81 1.82 1.85 2.04 2.16 2.27 2.38 2.56 2.73 2.81 2.87 2.84 2.87 2.86 2.86 2.98 3.06 2.95 2.86 2.95 2.96 2.84 2.73 2.72 2.72 2.87 2.81 2.81 2.91 3.14 3.17 3.12 3.17 3.29
0.17 0.30 0.71 0.96 1.12 1.05 0.95 1.16 1.24 0.99 0.86 0.87 0.97 1.15 1.43 1.60 1.64 1.74 1.82 1.76 1.78 1.84 1.98 2.14 2.23 2.26 2.23 2.32 2.42 2.43 2.64 2.66 2.66 2.79 2.69 2.72 2.66 2.64 2.60 2.54 2.50 2.43 2.45 2.50 2.87 2.95 2.89 2.99 3.02
0.24 0.31 0.34 0.55 0.69 1.08 1.28 1.35 1.23 0.92 1.07 1.07 1.17 1.22 1.24 1.30 1.34 1.35 1.38 1.43 1.54 1.59 1.66 1.79 1.89 1.90 1.84 1.91 2.08 2.15 2.23 2.36 2.45 2.55 2.46 2.33 2.36 2.26 2.35 2.32 2.23 2.20 2.30 2.45 2.59 2.61 2.62 2.77 2.74
0.26 0.38 0.52 0.76 1.02 1.22 1.36 1.60 1.78 1.59 1.54 1.43 1.55 1.70 1.41 1.15 1.17 1.20 1.18 1.23 1.26 1.31 1.43 1.59 1.69 1.84 1.85 1.82 1.87 1.84 1.95 2.05 2.23 2.31 2.20 2.21 2.30 2.24 2.17 2.12 2.05 2.06 2.11 2.20 2.38 2.36 2.46 2.45 2.42
0.37 0.46 0.56 0.71 0.83 1.12 1.49 1.68 1.46 1.65 1.68 1.61 1.51 1.51 1.37 1.04 0.96 1.06 0.99 1.01 1.08 1.14 1.25 1.41 1.70 1.86 1.81 1.66 1.72 1.82 1.80 1.88 1.98 2.03 1.97 2.07 2.19 2.32 2.29 2.22 2.18 2.04 1.98 2.07 2.18 2.05 2.19 2.19 2.19
0.31 0.46 0.56 0.74 0.82 0.92 1.19 1.45 1.06 1.21 1.20 1.16 1.21 1.08 1.00 0.93 0.76 0.87 0.92 0.87 0.92 0.97 1.08 1.26 1.49 1.66 1.68 1.64 1.67 1.79 1.85 1.82 1.79 1.76 1.79 1.86 1.91 1.98 2.00 1.96 1.97 1.96 2.05 2.15 2.06 2.00 2.04 2.12 2.09